When you browse on this site, cookies collect data to enhance your experience and personalize the content and advertising you see.
Visit our Privacy Policy to learn more. By continuing to use the site, you agree to this use of cookies and data.
  • In Deutschland
  • Länderverzeichnis
  • Für 7 Tage
  • Wassertemperatur
  • Satellitenkarten
  • Wetterkarte
  • Widgets
  • user-avatar
    Anmelden

    Stündliche Wetter Annaba

    Heute, 19 März, Dienstag

    Zeit Temperatur Niederschläge Wind Luftdruck Luftfeuchtigkeit
    00:00 +10°C° 0 mm 3 m/S 764 mmHg 76%
    01:00 +10°C° 0 mm 2 m/S 764 mmHg 78%
    02:00 +10°C° 0 mm 2 m/S 764 mmHg 78%
    03:00 +9°C° 0 mm 2 m/S 763 mmHg 78%
    04:00 +9°C° 0 mm 3 m/S 763 mmHg 78%
    05:00 +9°C° 0 mm 3 m/S 763 mmHg 78%
    06:00 +9°C° 0 mm 3 m/S 763 mmHg 79%
    07:00 +9°C° 0 mm 3 m/S 763 mmHg 79%
    08:00 +10°C° 0 mm 3 m/S 763 mmHg 73%
    09:00 +12°C° 0 mm 3 m/S 763 mmHg 67%
    10:00 +13°C° 0 mm 3 m/S 763 mmHg 61%
    11:00 +13°C° 0 mm 3 m/S 763 mmHg 59%
    12:00 +14°C° 0 mm 3 m/S 763 mmHg 57%
    13:00 +14°C° 0 mm 4 m/S 762 mmHg 56%
    14:00 +14°C° 0 mm 4 m/S 762 mmHg 56%
    15:00 +14°C° 0 mm 4 m/S 762 mmHg 57%
    16:00 +14°C° 0 mm 4 m/S 762 mmHg 58%
    17:00 +13°C° 0.1 mm 4 m/S 762 mmHg 64%
    18:00 +12°C° 0.1 mm 3 m/S 762 mmHg 70%
    19:00 +11°C° 0.1 mm 3 m/S 763 mmHg 76%
    20:00 +10°C° 0.1 mm 3 m/S 763 mmHg 78%
    21:00 +10°C° 0.1 mm 3 m/S 763 mmHg 81%
    22:00 +10°C° 0.1 mm 3 m/S 764 mmHg 83%
    23:00 +10°C° 0.2 mm 3 m/S 764 mmHg 85%

    Morgen, 20 März, Mittwoch

    Zeit Temperatur Niederschläge Wind Luftdruck Luftfeuchtigkeit
    00:00 +9°C° 0.2 mm 3 m/S 764 mmHg 86%
    01:00 +9°C° 0.2 mm 3 m/S 764 mmHg 88%
    02:00 +9°C° 0.2 mm 3 m/S 763 mmHg 88%
    03:00 +9°C° 0.2 mm 3 m/S 763 mmHg 89%
    04:00 +8°C° 0.2 mm 3 m/S 763 mmHg 89%
    05:00 +8°C° 0.2 mm 3 m/S 763 mmHg 89%
    06:00 +8°C° 0.2 mm 3 m/S 763 mmHg 89%
    07:00 +8°C° 0.2 mm 3 m/S 763 mmHg 89%
    08:00 +10°C° 0.2 mm 3 m/S 763 mmHg 84%
    09:00 +11°C° 0.2 mm 3 m/S 763 mmHg 80%
    10:00 +12°C° 0.2 mm 3 m/S 763 mmHg 75%
    11:00 +13°C° 0.4 mm 3 m/S 763 mmHg 74%
    12:00 +13°C° 0.4 mm 3 m/S 763 mmHg 73%
    13:00 +14°C° 0.4 mm 2 m/S 763 mmHg 71%
    14:00 +14°C° 1 mm 2 m/S 763 mmHg 76%
    15:00 +13°C° 1 mm 2 m/S 763 mmHg 80%
    16:00 +12°C° 1 mm 2 m/S 762 mmHg 84%
    17:00 +12°C° 1.4 mm 2 m/S 763 mmHg 87%
    18:00 +10°C° 1.4 mm 2 m/S 763 mmHg 91%
    19:00 +10°C° 1.4 mm 2 m/S 763 mmHg 94%
    20:00 +10°C° 1.3 mm 2 m/S 763 mmHg 94%
    21:00 +10°C° 1.3 mm 2 m/S 763 mmHg 94%
    22:00 +10°C° 1.3 mm 2 m/S 764 mmHg 94%
    23:00 +10°C° 2 mm 2 m/S 763 mmHg 94%

    übermorgen, 21 März, Donnerstag

    Zeit Temperatur Niederschläge Wind Luftdruck Luftfeuchtigkeit
    00:00 +10°C° 2 mm 3 m/S 763 mmHg 95%
    01:00 +10°C° 2 mm 4 m/S 763 mmHg 95%
    02:00 +10°C° 2.3 mm 4 m/S 762 mmHg 95%
    03:00 +10°C° 2.3 mm 4 m/S 762 mmHg 94%
    04:00 +10°C° 2.3 mm 4 m/S 761 mmHg 94%
    05:00 +10°C° 1.2 mm 4 m/S 761 mmHg 94%
    06:00 +10°C° 1.2 mm 4 m/S 761 mmHg 94%
    07:00 +10°C° 1.2 mm 3 m/S 761 mmHg 94%
    08:00 +10°C° 1.3 mm 3 m/S 761 mmHg 94%
    09:00 +10°C° 1.3 mm 2 m/S 761 mmHg 94%
    10:00 +10°C° 1.3 mm 2 m/S 762 mmHg 95%
    11:00 +10°C° 1.1 mm 3 m/S 761 mmHg 94%
    12:00 +9°C° 1.1 mm 5 m/S 761 mmHg 94%
    13:00 +10°C° 1.1 mm 6 m/S 761 mmHg 93%
    14:00 +9°C° 6 mm 6 m/S 760 mmHg 94%
    15:00 +9°C° 6 mm 6 m/S 760 mmHg 95%
    16:00 +8°C° 6 mm 5 m/S 759 mmHg 96%
    17:00 +8°C° 5.6 mm 5 m/S 760 mmHg 96%
    18:00 +8°C° 5.6 mm 4 m/S 760 mmHg 96%
    19:00 +7°C° 5.6 mm 4 m/S 760 mmHg 95%
    20:00 +8°C° 4.9 mm 4 m/S 760 mmHg 95%
    21:00 +8°C° 4.9 mm 4 m/S 761 mmHg 95%
    22:00 +8°C° 4.9 mm 5 m/S 761 mmHg 95%
    23:00 +9°C° 3.2 mm 5 m/S 761 mmHg 95%

    22 März, Freitag

    Zeit Temperatur Niederschläge Wind Luftdruck Luftfeuchtigkeit
    00:00 +9°C° 3.2 mm 5 m/S 761 mmHg 95%
    01:00 +9°C° 3.2 mm 5 m/S 761 mmHg 96%
    02:00 +9°C° 2.5 mm 5 m/S 761 mmHg 95%
    03:00 +9°C° 2.5 mm 5 m/S 760 mmHg 95%
    04:00 +9°C° 2.5 mm 5 m/S 760 mmHg 95%
    05:00 +9°C° 1.7 mm 5 m/S 760 mmHg 95%
    06:00 +10°C° 1.7 mm 5 m/S 761 mmHg 95%
    07:00 +10°C° 1.7 mm 6 m/S 761 mmHg 94%
    08:00 +10°C° 1.6 mm 6 m/S 761 mmHg 94%
    09:00 +12°C° 1.6 mm 5 m/S 761 mmHg 95%
    10:00 +12°C° 1.6 mm 5 m/S 762 mmHg 95%
    11:00 +13°C° 1.4 mm 5 m/S 762 mmHg 90%
    12:00 +14°C° 1.4 mm 4 m/S 762 mmHg 85%
    13:00 +17°C° 1.4 mm 3 m/S 762 mmHg 80%
    14:00 +17°C° 0.6 mm 3 m/S 762 mmHg 78%
    15:00 +17°C° 0.6 mm 4 m/S 762 mmHg 75%
    16:00 +17°C° 0.6 mm 4 m/S 762 mmHg 72%
    17:00 +16°C° 0.8 mm 3 m/S 762 mmHg 76%
    18:00 +14°C° 0.8 mm 3 m/S 763 mmHg 79%
    19:00 +12°C° 0.8 mm 3 m/S 763 mmHg 83%
    20:00 +12°C° 0 mm 3 m/S 764 mmHg 84%
    21:00 +11°C° 0 mm 3 m/S 764 mmHg 85%
    22:00 +12°C° 0 mm 2 m/S 765 mmHg 86%
    23:00 +10°C° 0 mm 2 m/S 765 mmHg 86%

    23 März, Samstag

    Zeit Temperatur Niederschläge Wind Luftdruck Luftfeuchtigkeit
    00:00 +10°C° 0 mm 2 m/S 765 mmHg 87%
    01:00 +9°C° 0 mm 2 m/S 765 mmHg 88%
    02:00 +9°C° 0 mm 2 m/S 765 mmHg 88%
    03:00 +9°C° 0 mm 2 m/S 765 mmHg 88%
    04:00 +9°C° 0 mm 2 m/S 765 mmHg 88%
    05:00 +9°C° 0 mm 2 m/S 766 mmHg 88%
    06:00 +10°C° 0 mm 1 m/S 766 mmHg 88%
    07:00 +9°C° 0 mm 1 m/S 766 mmHg 89%
    08:00 +12°C° 0 mm 1 m/S 766 mmHg 83%
    09:00 +14°C° 0 mm 1 m/S 766 mmHg 78%
    10:00 +16°C° 0 mm 1 m/S 766 mmHg 72%
    11:00 +18°C° 0 mm 1 m/S 766 mmHg 68%
    12:00 +18°C° 0 mm 1 m/S 766 mmHg 64%
    13:00 +18°C° 0 mm 2 m/S 766 mmHg 60%
    14:00 +18°C° 0 mm 2 m/S 765 mmHg 65%
    15:00 +18°C° 0 mm 3 m/S 765 mmHg 70%
    16:00 +17°C° 0 mm 4 m/S 765 mmHg 75%
    17:00 +15°C° 0 mm 4 m/S 765 mmHg 80%
    18:00 +13°C° 0 mm 4 m/S 765 mmHg 85%
    19:00 +12°C° 0 mm 4 m/S 765 mmHg 90%
    20:00 +12°C° 0 mm 4 m/S 766 mmHg 91%
    21:00 +11°C° 0 mm 3 m/S 766 mmHg 92%
    22:00 +11°C° 0 mm 3 m/S 767 mmHg 93%
    23:00 +11°C° 0 mm 3 m/S 766 mmHg 93%

    24 März, Sonntag

    Zeit Temperatur Niederschläge Wind Luftdruck Luftfeuchtigkeit
    00:00 +10°C° 0 mm 2 m/S 766 mmHg 92%
    01:00 +10°C° 0 mm 2 m/S 766 mmHg 92%
    02:00 +10°C° 0 mm 2 m/S 766 mmHg 92%
    03:00 +10°C° 0 mm 2 m/S 765 mmHg 92%
    04:00 +10°C° 0 mm 2 m/S 765 mmHg 91%
    05:00 +10°C° 0 mm 2 m/S 765 mmHg 91%
    06:00 +10°C° 0 mm 2 m/S 765 mmHg 91%
    07:00 +10°C° 0 mm 2 m/S 765 mmHg 90%
    08:00 +13°C° 0 mm 2 m/S 765 mmHg 83%
    09:00 +15°C° 0 mm 2 m/S 765 mmHg 77%
    10:00 +17°C° 0 mm 2 m/S 765 mmHg 70%
    11:00 +18°C° 0 mm 2 m/S 765 mmHg 67%
    12:00 +19°C° 0 mm 2 m/S 764 mmHg 65%
    13:00 +20°C° 0 mm 2 m/S 764 mmHg 62%
    14:00 +20°C° 0 mm 3 m/S 764 mmHg 65%
    15:00 +19°C° 0 mm 4 m/S 763 mmHg 68%
    16:00 +19°C° 0 mm 4 m/S 763 mmHg 72%
    17:00 +18°C° 0 mm 4 m/S 763 mmHg 77%
    18:00 +16°C° 0 mm 3 m/S 763 mmHg 83%
    19:00 +15°C° 0 mm 2 m/S 763 mmHg 89%
    20:00 +14°C° 0 mm 2 m/S 763 mmHg 89%
    21:00 +14°C° 0 mm 2 m/S 763 mmHg 90%
    22:00 +14°C° 0 mm 1 m/S 764 mmHg 91%
    23:00 +13°C° 0 mm 1 m/S 763 mmHg 91%
    Mehr zeigen